Weather History for Penticton, BC

Change the Weather History Date:

Tuesday, November 20, 2012

  Actual Average Record
Temperature  
Mean Temperature 48 °F -  
Max Temperature 53 °F 38 °F 53 °F (2002)
Min Temperature 44 °F 27 °F 10 °F (1996)
Degree Days  
Heating Degree Days 16    
Moisture  
Dew Point 41 °F    
Average Humidity 76    
Maximum Humidity 93    
Minimum Humidity 55    
Precipitation  
Precipitation 0.12 in 0.04 in - ()
Sea Level Pressure  
Sea Level Pressure 29.64 in    
Wind  
Wind Speed 12 mph ()    
Max Wind Speed 21 mph    
Max Gust Speed 32 mph    
Visibility 14.8 miles    
Events Rain    
Averages and records for this station are not official NWS values.
T = Trace of Precipitation, MM = Missing Value Source: Averaged Metar Reports

Daily Weather History Graph

Daily Weather History Graph

Search for Another Location

Airport:

Trip Planner

Search our weather history database for the weather conditions in past years. The results will help you decide how hot, cold, wet, or windy it might be!

Date:

Astronomy

Nov. 20, 2012 Rise Set
Actual Time 7:18 AM PST 4:09 PM PST
Civil Twilight 6:42 AM PST 4:45 PM PST
Nautical Twilight 6:03 AM PST 5:24 PM PST
Astronomical Twilight 5:25 AM PST 6:02 PM PST
Moon 12:34 PM PST (11/20) No Moon Set
Length of Visible Light 10h 03m
Length of Day
8h 51m
First Quarter, 52% of the Moon is Illuminated
Nov 20
First Quarter
Nov 28
Full
Dec 6
Last Quarter
Dec 13
New
Dec 19
First Quarter

Hourly Weather History & Observations

Time (PST) Temp. Windchill Dew Point Humidity Pressure Visibility Wind Dir Wind Speed Gust Speed Precip Events Conditions
12:00 AM 50.0 °F - 42.8 °F 76% 29.61 in 15.0 mi South 13.8 mph - N/A   Mostly Cloudy
1:00 AM 50.0 °F - 42.8 °F 76% 29.65 in 15.0 mi South 15.0 mph - N/A   Mostly Cloudy
2:00 AM 48.2 °F - 41.0 °F 76% 29.68 in 15.0 mi South 12.7 mph - N/A   Mostly Cloudy
3:00 AM 48.2 °F - 41.0 °F 76% 29.69 in 15.0 mi South 13.8 mph - N/A   Mostly Cloudy
4:00 AM 49 °F - 40 °F 64% 29.69 in 15 mi South 12.7 mph - -   Partly Cloudy
4:00 AM 50.0 °F - 41.0 °F 71% 29.69 in 15.0 mi South 12.7 mph - N/A   Mostly Cloudy
5:00 AM 48.2 °F - 39.2 °F 71% 29.70 in 15.0 mi South 16.1 mph 24.2 mph N/A   Mostly Cloudy
6:00 AM 48.2 °F - 39.2 °F 71% 29.69 in 15.0 mi South 15.0 mph - N/A   Mostly Cloudy
7:00 AM 48.2 °F - 39.2 °F 71% 29.70 in 15.0 mi South 12.7 mph 18.4 mph N/A   Overcast
8:00 AM 48.2 °F - 39.2 °F 71% 29.69 in 15.0 mi South 15.0 mph - N/A   Mostly Cloudy
9:00 AM 48.2 °F - 39.2 °F 71% 29.68 in 15.0 mi SSE 11.5 mph - N/A   Mostly Cloudy
9:05 AM 48.2 °F - 41.0 °F 76% 29.68 in 15.0 mi South 10.4 mph - N/A Rain Light Rain Showers
9:30 AM 48.2 °F - 41.0 °F 76% 29.67 in 15.0 mi South 11.5 mph - N/A   Mostly Cloudy
10:00 AM 48 °F - 40 °F 66% 29.67 in 15 mi SSE 10.4 mph - - Rain Light Rain Showers
10:00 AM 48.2 °F - 41.0 °F 76% 29.67 in 15.0 mi SSE 11.5 mph - N/A   Mostly Cloudy
11:00 AM 48.2 °F - 41.0 °F 76% 29.64 in 15.0 mi SSE 8.1 mph - N/A   Mostly Cloudy
11:22 AM 46.4 °F 41.9 °F 42.8 °F 87% 29.63 in 15.0 mi SSE 9.2 mph - N/A Rain Light Rain Showers
12:00 PM 46.4 °F 42.9 °F 42.8 °F 87% 29.62 in 15.0 mi SE 6.9 mph - N/A Rain Light Rain Showers
1:00 PM 46.4 °F 43.5 °F 42.8 °F 87% 29.60 in 12.0 mi SE 5.8 mph - N/A Rain Light Rain
2:00 PM 46.4 °F 41.9 °F 44.6 °F 93% 29.58 in 12.0 mi South 9.2 mph - N/A Rain Light Rain
3:00 PM 46.4 °F 42.4 °F 44.6 °F 93% 29.57 in 15.0 mi SSE 8.1 mph - N/A Rain Light Rain
4:00 PM 47 °F - 44 °F 86% 29.57 in 15 mi SE 8.1 mph - - Rain Light Rain
4:00 PM 46.4 °F 42.4 °F 44.6 °F 93% 29.56 in 15.0 mi SSE 8.1 mph - N/A Rain Light Rain
5:00 PM 48.2 °F - 44.6 °F 87% 29.58 in 15.0 mi South 15.0 mph 24.2 mph N/A   Mostly Cloudy
6:00 PM 50.0 °F - 42.8 °F 76% 29.58 in 15.0 mi SSW 17.3 mph 23.0 mph N/A   Mostly Cloudy
7:00 PM 50.0 °F - 42.8 °F 76% 29.60 in 15.0 mi South 17.3 mph 25.3 mph N/A   Mostly Cloudy
8:00 PM 50.0 °F - 41.0 °F 71% 29.59 in 15.0 mi South 19.6 mph 32.2 mph N/A   Mostly Cloudy
9:00 PM 48.2 °F - 39.2 °F 71% 29.62 in 15.0 mi SSW 20.7 mph 26.5 mph N/A   Scattered Clouds
10:00 PM 48 °F - 37 °F 55% 29.63 in 15 mi SSW 18.4 mph - -   Partly Cloudy
10:00 PM 48.2 °F - 37.4 °F 66% 29.63 in 15.0 mi SSW 18.4 mph - N/A   Scattered Clouds
11:00 PM 46.4 °F 38.7 °F 37.4 °F 71% 29.65 in 15.0 mi South 20.7 mph - N/A   Scattered Clouds